Location: Kawakawa
(35.3830°S, 174.0670°E)
Time: 21:33:45
(UTC+13:00)

Altair - Pass Details

Date: 12 December 2019
Orbit: 1502 x 1682 km, 47.2° (Epoch: 19 January)

Event Time Altitude Azimuth Distance (km) Brightness Sun altitude
Rises 12:28:52 0° 262° (W) 4,828 10.0 73.8°
Reaches altitude 10° 12:32:13 10° 254° (WSW) 3,869 9.6 74.3°
Maximum altitude 12:41:33 43° 185° (S) 2,228 8.9 75.4°
Drops below altitude 10° 12:51:07 10° 115° (ESE) 3,960 9.8 76.4°
Sets 12:54:36 0° 108° (ESE) 4,950 10.2 76.7°
